Regional Weather Roundup
Issued by NWS Jackson, KY

Home | Current Version | Previous Version | Text Only | Print | Product List | Glossary On
Versions: 1 2 3 4 5 6 7 8 9 10 11 12 13 14 15 16 17 18 19 20 21 22 23 24 25 26 27
000
ASUS43 KJKL 202110
RWRJKL

EAST KENTUCKY HOURLY WEATHER ROUNDUP
NATIONAL WEATHER SERVICE JACKSON KY
400 PM EST FRI JAN 20 2017

NOTE: "FAIR" INDICATES FEW OR NO CLOUDS BELOW 12,000 FEET WITH
NO SIGNIFICANT WEATHER AND/OR OBSTRUCTIONS TO VISIBILITY.

* THESE REPORTS ARE NOT UNDER NWS QUALITY CONTROL AND MAY NOT
  REPORT WEATHER SUCH AS PRECIPITATION AND FOG.

KYZ079-080-083-085-087-088-110-112-115-119-120-202200
...EASTERN KENTUCKY...

CITY           SKY/WX    TMP DP  RH WIND       PRES   REMARKS
JACKSON        CLOUDY    64  50  60 W6        29.75S
LONDON         MOSUNNY   64  48  56 SW15      29.76S
SOMERSET*      SUNNY     63  45  51 S8        29.77S
MONTICELLO*    MOSUNNY   65  51  60 SW12G20   29.78R
WILLIAMSBURG*  CLEAR     66  46  48 W7        29.77R
MIDDLESBORO*   PTSUNNY   67  50  55 CALM      29.78S
HARLAN APT*    CLOUDY    64  46  52 SE3       29.78R
PIKE CO APT*   PTSUNNY   65  50  59 S6        29.76S
BIG SANDY APT* PTCLDY    64  51  62 W6        29.76R
MOREHEAD APT*  CLOUDY    63  48  59 SW13G20   29.76R
ASHLAND*       PTSUNNY   63  52  67 NW6       29.72R
$$

KYZ035-036-041-042-044-050-067-078-099-202200
...CENTRAL KENTUCKY...

CITY           SKY/WX    TMP DP  RH WIND       PRES   REMARKS
MT STERLING*   SUNNY     63  50  63 W8G17     29.75S
FLEMING/MASON* PTSUNNY   61  51  70 SW9G17    29.75R
DANVILLE*      PTSUNNY   61  46  59 SW10      29.76R
LEXINGTON      PTSUNNY   62  49  62 SW12      29.74R
FRANKFORT      CLOUDY    62  49  62 S12       29.72R
LOUISVILLE     PTSUNNY   62  48  60 S12G21    29.70S
LEBANON*       MOCLDY    61  48  63 S14G20    29.74S
GLASGOW*       MOSUNNY   65  52  64 S7        29.73S
BOWLING GREEN  MOSUNNY   65  53  65 S10       29.72S
$$

KYZ091>093-OHZ055-061-077-WVZ005-015-034-035-042-202200
...SOUTHERN OHIO/WEST VIRGINIA...

CITY           SKY/WX    TMP DP  RH WIND       PRES   REMARKS
COVINGTON      PTSUNNY   60  48  64 SW10G21   29.70R
COLUMBUS       CLOUDY    60  50  69 SW12      29.70R
DAYTON         PTSUNNY   57  48  72 SW14      29.70R
WILMINGTON     PTSUNNY   58  50  75 SW15      29.70R
HUNTINGTON     PTSUNNY   67  49  52 SW10      29.73S
CHARLESTON     PTSUNNY   63  49  60 SW7       29.75R
PINEVILLE*     PTSUNNY   64  45  48 MISG      29.82S
BECKLEY        SUNNY     61  45  55 SW9       29.79R
BLUEFIELD      SUNNY     57  44  62 W14G21    29.81S
LOGAN CO APT*    N/A     64  48  55 VRB5G12   29.76S
$$

VAZ002-007-008-TNZ017-027-036-066-071-202200
...SOUTHWEST VIRGINIA/EAST TENNESSEE...

CITY           SKY/WX    TMP DP  RH WIND       PRES   REMARKS
WISE*          MOSUNNY   59  46  63 SW12G20   29.82R
JONESVILLE*      N/A     66  48  52 SW12      29.81R
ABINGDON*      CLOUDY    62  53  72 W9        29.82R
BRISTOL        CLOUDY    65  51  60 SW12      29.80S
MORRISTOWN*    PTCLDY    66  52  59 SW14      29.78S
SEVIERVILLE*   CLEAR     68  48  49 W12       29.78S
KNOXVILLE      PTSUNNY   68  50  52 SW17      29.78R
LAFOLLETTE*    MOCLDY    66  48  52 SW7G14    29.80S
OAK RIDGE      SUNNY     68  51  54 VRB6      29.79R
CROSSVILLE     CLOUDY    62  47  57 VRB6      29.80R
NASHVILLE      PTSUNNY   67  51  56 S14G23    29.73R
$$

...KEY TO REMARKS...
VSB - VISIBILITY IN MILES
WCI - WIND CHILL INDEX
HX  - HEAT INDEX

$$




USA.gov is the U.S. government's official web portal to all federal, state and local government web resources and services.